Regional Weather Roundup
Issued by NWS Jackson, KY

Home | Current Version | Previous Version | Graphics & Text | Print | Product List | Glossary On
Versions: 1 2 3 4 5 6 7 8 9 10 11 12 13 14 15 16 17 18 19 20 21 22 23 24 25 26 27 28 29 30 31 32 33 34 35 36 37 38 39 40 41 42 43 44 45 46 47 48 49 50
195
ASUS43 KJKL 180310
RWRJKL

EAST KENTUCKY HOURLY WEATHER ROUNDUP
NATIONAL WEATHER SERVICE JACKSON KY
1000 PM EST FRI NOV 17 2017

NOTE: "FAIR" INDICATES FEW OR NO CLOUDS BELOW 12,000 FEET WITH
NO SIGNIFICANT WEATHER AND/OR OBSTRUCTIONS TO VISIBILITY.

* THESE REPORTS ARE NOT UNDER NWS QUALITY CONTROL AND MAY NOT
  REPORT WEATHER SUCH AS PRECIPITATION AND FOG.

KYZ079-080-083-085-087-088-110-112-115-119-120-180400
...EASTERN KENTUCKY...

CITY           SKY/WX    TMP DP  RH WIND       PRES   REMARKS
JACKSON        PTCLDY    50  29  44 S3        29.96F
LONDON         PTCLDY    50  34  54 SE5       29.95F
SOMERSET*      CLOUDY    54  34  47 S7        29.95F
MONTICELLO*    CLOUDY    59  36  42 VRB7      29.95F
WILLIAMSBURG*  PTCLDY    52  36  54 SE7       29.96F
MIDDLESBORO*   PTCLDY    41  37  86 CALM      30.01F
HARLAN APT*    PTCLDY    50  30  46 CALM      30.01S
PIKE CO APT*     N/A     49  28  44 S5        29.98S
BIG SANDY APT* PTCLDY    47  30  50 S3        29.97S
MOREHEAD APT*  CLOUDY    46  28  49 SE7       29.94F
$$

KYZ035-036-041-042-044-050-067-078-099-180400
...CENTRAL KENTUCKY...

CITY           SKY/WX    TMP DP  RH WIND       PRES   REMARKS
MT STERLING*   PTCLDY    46  32  57 S9        29.92F
FLEMING/MASON* CLOUDY    43  32  65 CALM      29.91F
DANVILLE*      CLOUDY    50  36  57 SW7       29.92S
LEXINGTON      CLOUDY    51  35  54 SE12      29.89F
FRANKFORT      CLOUDY    51  35  54 S5        29.87F
LOUISVILLE     CLOUDY    51  39  63 SE9       29.84F
LEBANON*         N/A     55  36  47 S15       29.88F
GLASGOW*       CLOUDY    57  34  41 S7        29.89S
BOWLING GREEN  PTCLDY    62  33  33 S15       29.87F
$$

KYZ091>093-OHZ055-061-077-WVZ005-015-034-035-042-180400
...SOUTHERN OHIO/WEST VIRGINIA...

CITY           SKY/WX    TMP DP  RH WIND       PRES   REMARKS
COVINGTON      CLOUDY    47  36  65 S12       29.85F
COLUMBUS       CLOUDY    43  31  62 SE6       29.90F
DAYTON         CLOUDY    45  33  63 S16       29.83F
WILMINGTON     CLOUDY    44  33  65 SE9       29.87F
HUNTINGTON     CLOUDY    40  29  64 E5        29.95F
CHARLESTON     PTCLDY    36  30  79 CALM      29.96F
PINEVILLE*     PTCLDY    37  32  81 MISG      30.06F
BECKLEY        CLOUDY    45  22  40 SE10      30.02F
BLUEFIELD      CLOUDY    47  20  34 S13       30.04F
LOGAN CO APT*    N/A     50  23  34 S6        29.98F
$$

VAZ002-007-008-TNZ017-027-036-066-071-180400
...SOUTHWEST VIRGINIA/EAST TENNESSEE...

CITY           SKY/WX    TMP DP  RH WIND       PRES   REMARKS
WISE*          PTCLDY    52  28  40 S10G16    30.02F
JONESVILLE*      N/A     39  36  87 NE3       30.04
ABINGDON*      PTCLDY    45  31  60 E5        30.04F
BRISTOL        PTCLDY    40  31  70 CALM      30.03F
MORRISTOWN*    CLEAR     46  36  66 CALM      30.02S
SEVIERVILLE*   CLEAR     39  36  87 CALM      30.02F
KNOXVILLE      MOCLDY    48  43  82 CALM      30.02S
LAFOLLETTE*    CLEAR     46  39  76 N3        30.03F
OAK RIDGE      CLOUDY    49  41  74 SW3       30.03F
CROSSVILLE     MOCLDY    55  36  48 S12G18    30.00F
NASHVILLE      CLOUDY    61  33  35 S21G30    29.91S
$$

...KEY TO REMARKS...
VSB - VISIBILITY IN MILES
WCI - WIND CHILL INDEX
HX  - HEAT INDEX

$$




USA.gov is the U.S. government's official web portal to all federal, state and local government web resources and services.